Waarnemingen

Advertentie
Mijn weer
Terschelling/Hoorn, Nederland (6251): temperatuur & dauwpunt: 15.01.2017 11:00:00 - 21.01.2017 11:00:00 (CET)Terschelling/Hoorn, Nederland (6251): temperatuur 5cm: 15.01.2017 11:00:00 - 21.01.2017 11:00:00 (CET)Terschelling/Hoorn, Nederland (6251): windsnelheid & windstoten: 15.01.2017 11:00:00 - 21.01.2017 11:00:00 (CET)Terschelling/Hoorn, Nederland (6251): windrichting: 15.01.2017 11:00:00 - 21.01.2017 11:00:00 (CET)Terschelling/Hoorn, Nederland (6251): luchtdruk: 15.01.2017 11:00:00 - 21.01.2017 11:00:00 (CET)Terschelling/Hoorn, Nederland (6251): zicht: 15.01.2017 11:00:00 - 21.01.2017 11:00:00 (CET)Terschelling/Hoorn, Nederland (6251): neerslag: 15.01.2017 11:00:00 - 21.01.2017 11:00:00 (CET)
Datum & Tijd tt [°C] td [°C] tt 5cm [°C] ff [km/u] ff [kn] fx [km/u] fx [kn] dd ppp [hPa] vv [km] rr [mm]
21.01.2017 11:00:00 2,9 2,0 2,8 7 4 14 8 O 1032,6 8 0,0
21.01.2017 10:00:00 2,8 1,8 2,4 14 8 22 12 O 1032,8 8 0,0
21.01.2017 09:00:00 2,2 1,8 2,1 11 6 14 8 O 1032,8 3,0 0,0
21.01.2017 08:00:00 2,3 1,7 2,1 7 4 18 10 O 1032,6 3,2 0,0
21.01.2017 07:00:00 2,7 1,8 2,3 11 6 22 12 O 1032,6 7 0,0
21.01.2017 06:00:00 2,6 1,8 2,1 7 4 11 6 ONO 1032,9 8 0,0
21.01.2017 05:00:00 2,6 1,9 2,1 4 2 11 6 O 1033,1 13 0,0
21.01.2017 04:00:00 2,6 2,2 2,1 4 2 7 4 O 1033,5 9 0,0
21.01.2017 03:00:00 2,8 2,6 2,4 7 4 11 6 ZO 1033,7 9 0,0
21.01.2017 02:00:00 2,0 1,8 0,9 4 2 7 4 O 1033,8 0,6 0,0
21.01.2017 01:00:00 1,8 1,7 1,3 4 2 7 4 O 1034,4 0,2 0,0
21.01.2017 00:00:00 2,3 2,0 1,8 4 2 7 4 O 1034,7 0,2 0,0
20.01.2017 23:00:00 2,3 2,2 2,1 0 0 4 2 N 1034,9 0,7 0,4
20.01.2017 22:00:00 2,1 1,7 1,8 4 2 4 2 OZO 1034,9 1,0 0,2
20.01.2017 21:00:00 1,8 1,6 1,3 0 0 7 4 N 1035,1 2,3 0,0
20.01.2017 20:00:00 2,0 1,0 1,1 4 2 7 4 WZW 1035,0 9 0,0
20.01.2017 19:00:00 2,7 1,4 2,0 7 4 7 4 NW 1035,0 9 0,0
20.01.2017 18:00:00 2,2 1,3 2,0 4 2 7 4 W 1035,3 9 0,0
20.01.2017 17:00:00 2,6 1,2 2,4 7 4 11 6 WZW 1035,4 12 0,0
20.01.2017 16:00:00 3,1 1,5 2,9 7 4 11 6 WZW 1035,4 10 0,0
20.01.2017 15:00:00 3,3 1,4 3,2 11 6 11 6 WZW 1035,5 9 0,0
20.01.2017 14:00:00 3,0 1,2 3,0 11 6 14 8 WZW 1035,9 7 0,0
20.01.2017 13:00:00 3,1 0,7 3,5 7 4 11 6 ZW 1036,3 9 0,0
20.01.2017 12:00:00 2,6 -0,9 3,1 7 4 11 6 ZW 1036,8 13 0,0
20.01.2017 11:00:00 1,8 -0,6 1,7 4 2 11 6 WZW 1037,0 10 0,0
20.01.2017 10:00:00 -0,2 -0,9 -0,9 4 2 11 6 WZW 1036,9 8 0,0
20.01.2017 09:00:00 -1,7 -2,4 -2,4 7 4 7 4 ZW 1036,6 3,8 0,0
20.01.2017 08:00:00 0,1 -1,5 -1,8 4 2 7 4 ZZW 1036,5 8 0,0
20.01.2017 07:00:00 -0,4 -2,7 -2,0 4 2 7 4 Z 1036,5 16 0,0
20.01.2017 06:00:00 -3,5 -4,8 -4,7 4 2 4 2 WZW 1036,7 17 0,0
20.01.2017 05:00:00 -3,3 -4,5 -4,9 4 2 4 2 WZW 1036,8 15 0,0
20.01.2017 04:00:00 -3,2 -4,1 -4,9 4 2 7 4 WZW 1036,9 18 0,0
20.01.2017 03:00:00 -2,6 -4,0 -4,4 4 2 7 4 W 1037,0 11 0,0
20.01.2017 02:00:00 -1,1 -3,2 -4,6 4 2 7 4 ZW 1037,0 15 0,0
20.01.2017 01:00:00 -2,2 -2,8 -4,3 7 4 7 4 ZZW 1037,5 7 0,0
20.01.2017 00:00:00 -2,0 -3,6 -4,0 7 4 11 6 ZW 1037,7 9 0,0
19.01.2017 23:00:00 -1,5 -2,7 -4,2 7 4 7 4 ZZW 1038,0 9 0,0
19.01.2017 22:00:00 -1,8 -3,2 -3,8 7 4 7 4 ZZW 1038,0 10 0,0
19.01.2017 21:00:00 -0,5 -2,1 -3,0 4 2 11 6 WZW 1037,9 9 0,0
19.01.2017 20:00:00 -1,1 -1,9 -3,1 7 4 11 6 ZZW 1037,9 6 0,0
19.01.2017 19:00:00 -1,1 -1,9 -2,8 11 6 11 6 ZZW 1037,6 5 0,0
19.01.2017 18:00:00 -0,4 -1,2 -2,8 7 4 11 6 ZZW 1037,6 6 0,0
19.01.2017 17:00:00 0,1 -1,1 -0,7 11 6 14 8 ZW 1037,5 6 0,0
19.01.2017 16:00:00 1,6 -0,5 1,5 11 6 14 8 ZZW 1037,6 7 0,0
19.01.2017 15:00:00 2,8 -0,7 3,3 7 4 11 6 ZZW 1037,8 10 0,0
19.01.2017 14:00:00 2,8 -0,6 3,5 11 6 14 8 ZZW 1038,0 11 0,0
19.01.2017 13:00:00 2,4 -2,2 2,6 14 8 14 8 ZW 1038,4 13 0,0
19.01.2017 12:00:00 1,9 -1,3 1,9 11 6 14 8 ZW 1038,6 11 0,0
19.01.2017 11:00:00 1,1 -0,3 0,7 11 6 14 8 ZZW 1038,9 5 0,0
19.01.2017 10:00:00 0,3 -0,8 -0,7 11 6 14 8 ZZW 1038,9 4,2 0,0
19.01.2017 09:00:00 -2,7 -3,5 -3,8 11 6 14 8 ZW 1038,5 3,0 0,0
19.01.2017 08:00:00 -1,4 -2,3 -2,8 11 6 14 8 ZZW 1038,3 3,7 0,0
19.01.2017 07:00:00 -0,5 -2,2 -1,6 14 8 18 10 Z 1037,8 7 0,0
19.01.2017 06:00:00 -1,1 -3,1 -2,0 11 6 14 8 ZZW 1038,2 8 0,0
19.01.2017 05:00:00 -0,3 -2,1 -0,9 14 8 18 10 Z 1038,6 8 0,0
19.01.2017 04:00:00 0,2 -2,2 -0,8 11 6 14 8 ZZW 1038,6 16 0,0
19.01.2017 03:00:00 0,1 -1,6 -0,6 14 8 18 10 ZZW 1038,4 7 0,0
19.01.2017 02:00:00 0,5 -1,5 0,0 14 8 18 10 ZZW 1038,6 8 0,0
19.01.2017 01:00:00 0,5 -1,7 -0,3 14 8 18 10 ZZW 1038,7 9 0,0
19.01.2017 00:00:00 0,2 -1,9 -0,4 14 8 18 10 ZZW 1038,9 9 0,0
18.01.2017 23:00:00 0,3 -1,5 -0,2 14 8 18 10 ZZW 1038,9 7 0,0
18.01.2017 22:00:00 -0,5 -1,6 -1,1 14 8 18 10 ZZW 1038,8 4,4 0,0
18.01.2017 21:00:00 -0,2 -1,4 -0,5 14 8 22 12 Z 1039,1 4,3 0,0
18.01.2017 20:00:00 0,2 -1,3 -0,1 14 8 22 12 ZZW 1039,0 4,9 0,0
18.01.2017 19:00:00 0,2 -1,3 0,0 14 8 18 10 Z 1039,3 6 0,0
18.01.2017 18:00:00 0,3 -1,1 0,0 14 8 22 12 Z 1039,3 6 0,0
18.01.2017 17:00:00 0,4 -1,4 0,1 18 10 22 12 Z 1039,2 7 0,0
18.01.2017 16:00:00 0,8 -1,0 0,7 14 8 22 12 ZZW 1039,4 8 0,0
18.01.2017 15:00:00 0,8 -1,0 1,0 18 10 22 12 ZZW 1039,3 7 0,0
18.01.2017 14:00:00 0,7 -1,0 0,9 18 10 22 12 ZZW 1039,7 7 0,0
18.01.2017 13:00:00 0,3 -1,2 0,3 18 10 25 14 Z 1040,1 8 0,0
18.01.2017 12:00:00 -0,2 -1,3 -0,3 22 12 25 14 Z 1040,2 7 0,0
18.01.2017 11:00:00 -0,6 -1,2 -0,6 18 10 25 14 Z 1040,1 6 0,0
18.01.2017 10:00:00 -1,2 -1,6 -1,2 18 10 25 14 ZZW 1040,0 4,9 0,0
18.01.2017 09:00:00 -1,9 -2,1 -1,9 22 12 25 14 Z 1040,0 4,2 0,0
18.01.2017 08:00:00 -2,0 -2,2 -2,0 18 10 25 14 Z 1039,2 1,2 0,0
18.01.2017 07:00:00 -2,1 -2,3 -2,3 14 8 25 14 Z 1038,9 1,2 0,0
18.01.2017 06:00:00 -1,9 -2,4 -2,0 22 12 25 14 Z 1039,2 2,1 0,0
18.01.2017 05:00:00 -1,5 -2,0 -1,7 22 12 25 14 Z 1039,2 3,6 0,0
18.01.2017 04:00:00 -1,1 -1,7 -1,6 18 10 25 14 Z 1039,5 5 0,0
18.01.2017 03:00:00 -1,5 -2,0 -1,6 18 10 25 14 Z 1039,7 3,2 0,0
18.01.2017 02:00:00 -1,5 -2,2 -1,7 14 8 18 10 Z 1039,7 4,9 0,0
18.01.2017 01:00:00 -2,3 -2,8 -2,4 14 8 18 10 Z 1039,7 6 0,0
18.01.2017 00:00:00 -2,1 -2,3 -2,0 14 8 22 12 Z 1039,7 4,6 0,0
17.01.2017 23:00:00 -1,6 -1,8 -1,6 18 10 25 14 Z 1039,5 0,9 0,0
17.01.2017 22:00:00 -1,6 -2,1 -1,7 18 10 22 12 Z 1039,6 1,6 0,0
17.01.2017 21:00:00 -1,0 -1,7 -1,2 18 10 22 12 Z 1039,4 3,8 0,0
17.01.2017 20:00:00 -1,2 -1,9 -1,3 14 8 18 10 Z 1039,2 4,4 0,0
17.01.2017 19:00:00 -0,6 -1,5 -0,8 14 8 22 12 Z 1039,1 5 0,0
17.01.2017 18:00:00 -0,4 -1,6 -0,7 18 10 22 12 Z 1038,5 7 0,0
17.01.2017 17:00:00 -0,3 -1,7 -0,5 14 8 22 12 Z 1038,6 8 0,0
17.01.2017 16:00:00 -0,2 -1,5 -0,2 18 10 22 12 Z 1038,6 9 0,0
17.01.2017 15:00:00 0,4 -1,1 0,3 14 8 18 10 ZZW 1038,3 11 0,0
17.01.2017 14:00:00 0,2 -0,9 0,8 14 8 22 12 Z 1038,5 8 0,0
17.01.2017 13:00:00 -0,6 -1,1 -0,3 14 8 22 12 Z 1038,6 5 0,0
17.01.2017 12:00:00 -0,9 -1,4 -0,7 14 8 18 10 Z 1038,7 5 0,0
17.01.2017 11:00:00 -0,7 -1,3 -0,6 14 8 14 8 Z 1038,2 4,7 0,0
17.01.2017 10:00:00 -0,5 -1,2 -0,6 11 6 14 8 Z 1037,8 9 0,0
17.01.2017 09:00:00 -1,0 -1,5 -1,2 11 6 14 8 Z 1037,3 9 0,0
17.01.2017 08:00:00 -1,1 -1,6 -1,6 11 6 11 6 Z 1036,7 4,4 0,0
17.01.2017 07:00:00 -1,3 -1,6 -1,7 7 4 - - ZZW 1036,3 3,8 0,0
17.01.2017 06:00:00 -1,0 -1,4 -1,3 11 6 11 6 ZZW 1035,6 1,8 0,0
17.01.2017 05:00:00 -0,8 -1,0 -1,3 11 6 11 6 ZZW 1035,6 0,6 0,0
17.01.2017 04:00:00 -1,3 -1,5 -1,5 7 4 - - WZW 1035,6 0,2 0,0
17.01.2017 03:00:00 -3,5 -3,9 -5,5 4 2 4 2 WZW 1034,9 4,7 0,0
17.01.2017 02:00:00 -3,7 -4,4 -5,2 4 2 7 4 W 1034,5 9 0,0
17.01.2017 01:00:00 -4,0 -4,4 -5,2 4 2 7 4 W 1034,5 12 0,0
17.01.2017 00:00:00 -3,2 -4,1 -5,4 7 4 7 4 WZW 1034,3 16 0,0
16.01.2017 23:00:00 -3,0 -3,6 -5,9 7 4 7 4 WZW 1034,0 15 0,0
16.01.2017 22:00:00 -3,6 -4,1 -5,7 4 2 4 2 WZW 1033,6 9 0,0
16.01.2017 21:00:00 -3,2 -4,2 -5,7 0 0 11 6 N 1032,8 14 0,0
16.01.2017 20:00:00 -2,1 -3,2 -5,3 7 4 11 6 ZO 1032,1 24 0,0
16.01.2017 19:00:00 -1,9 -3,5 -4,8 7 4 11 6 OZO 1031,6 29 0,0
16.01.2017 18:00:00 -2,1 -3,9 -4,3 7 4 11 6 ONO 1031,1 30 0,0
16.01.2017 17:00:00 -0,8 -2,7 -2,4 7 4 14 8 O 1030,6 23 0,0
16.01.2017 16:00:00 0,9 -2,0 0,6 11 6 14 8 O 1029,9 29 0,0
16.01.2017 15:00:00 1,7 -1,8 1,9 11 6 11 6 O 1029,5 26 0,0
16.01.2017 14:00:00 2,1 -1,9 2,8 7 4 11 6 OZO 1029,3 16 0,0
16.01.2017 13:00:00 2,1 -1,7 2,7 7 4 14 8 ZO 1029,1 29 0,0
16.01.2017 12:00:00 1,8 -1,5 2,0 14 8 18 10 OZO 1029,0 31 0,0
16.01.2017 11:00:00 1,9 -0,6 1,4 7 4 14 8 OZO 1028,4 33 0,0
16.01.2017 10:00:00 1,2 -0,7 -0,1 7 4 11 6 ZO 1027,8 26 0,0
16.01.2017 09:00:00 -1,5 -2,4 -3,6 7 4 11 6 OZO 1027,2 16 0,0
16.01.2017 08:00:00 -1,9 -2,1 -3,5 4 2 4 2 NO 1026,5 13 0,0
16.01.2017 07:00:00 -1,6 -2,4 -2,8 0 0 7 4 N 1026,0 6 0,0
16.01.2017 06:00:00 0,8 0,2 -0,8 4 2 7 4 NNO 1025,6 37 0,0
16.01.2017 05:00:00 1,0 0,1 0,4 4 2 18 10 NNO 1025,2 35 0,0
16.01.2017 04:00:00 0,6 0,0 0,3 7 4 22 12 ONO 1025,0 19 0,6
16.01.2017 03:00:00 1,2 0,5 0,4 4 2 22 12 OZO 1024,5 39 0,3
16.01.2017 02:00:00 0,6 -0,8 -0,8 4 2 14 8 ZW 1024,1 25 0,0
16.01.2017 01:00:00 1,8 0,3 0,6 14 8 18 10 O 1024,2 20 0,0
16.01.2017 00:00:00 1,5 0,6 -0,4 4 2 7 4 WZW 1023,9 24 0,0
15.01.2017 23:00:00 1,3 0,2 0,4 4 2 11 6 ZW 1023,5 23 0,0
15.01.2017 22:00:00 2,0 0,9 0,9 7 4 11 6 O 1023,2 8 0,1
15.01.2017 21:00:00 2,3 0,6 0,4 7 4 29 16 N 1022,7 21 0,2
15.01.2017 20:00:00 2,1 -0,6 -0,7 7 4 11 6 NNW 1022,1 15 0,0
15.01.2017 19:00:00 2,5 -0,9 0,8 7 4 11 6 NW 1021,7 22 0,0
15.01.2017 18:00:00 2,8 -0,2 1,0 7 4 18 10 NNO 1021,5 17 0,0
15.01.2017 17:00:00 1,4 -0,9 0,2 0 0 14 8 N 1020,9 17 0,0
15.01.2017 16:00:00 4,0 0,5 3,9 14 8 25 14 NNO 1020,4 21 0,0
15.01.2017 15:00:00 5,4 -1,0 5,3 11 6 18 10 NNW 1020,1 30 0,0
15.01.2017 14:00:00 5,0 0,8 5,0 11 6 18 10 W 1019,9 21 0,0
15.01.2017 13:00:00 4,6 0,5 4,5 14 8 29 16 WNW 1019,7 25 0,0
15.01.2017 12:00:00 5,2 -0,8 4,8 11 6 22 12 NW 1019,6 21 0,0
15.01.2017 11:00:00 4,1 0,6 3,5 7 4 25 14 N 1019,5 20 0,0

tt = temperatuur
td = dauwpunt
tt 5cm = temperatuur 5cm
ff = windsnelheid
fx = windstoten
dd = windrichting
ppp = luchtdruk
vv = zicht
rr = neerslag

Weerstations in de omgeving